loading
DOY 203 | 2024-07-21T09:54:54Z

STARLINK-11127, 60119

Orbit data source: Space-Track

STARLINK-11127, 60119 is a payload satellite owned by SpaceX/Seattle (US) in LEO that was launched on Mon, 24 Jun 2024 UTC via a Falcon 9 launch vehicle from the Air Force Western Test Range (AFWTR). Payloads include a variety of satellites, spacecraft, and rockets equipped with specific instruments for various scientific and technological missions. These include communications satellites like Starlink; space stations such as the ISS; scientific satellites like the Hubble; Earth observation satellites from companies like Planet Labs, Umbra, and HawkEye 360; GPS; miniature CubeSats for education and research; and military/defense satellites.

Next visibility unknown
Loading greatness...
STARLINK-11127 details
NORAD ID60119
COSPAR ID
2024-118G
Orbit
LEO
Last TLE update5 hours ago
Origin
Flag of USSpaceX/Seattle (US)
ManufacturerSpaceX/Seattle
BusStarlink V2M
MotorUnknown
Mass750 kg wet, ~700 kg dry
Launch date (UTC)
2024-06-24 (1 month ago)
Launch vehicle
Falcon 9
Launch site
Air Force Western Test Range (AFWTR)
Object type
Payload
Rocket body
Debris
Radar Cross SectionLarge (>1 m²)
Predictive object data (real-time)
Latitude16.71143°
Longitude-82.79246°
Altitude340.181 km
Speed7.707 km/s
Apparent Right ascension16h 26m 05s
Apparent Declination-24° 10' 55"
Sunlit
Object is in full shadow
Predictive observer data (real-time)
Local Sidereal Time22:53:04
Azimuth254.842° W
Elevation-20.184°
Doppler factor1
Orbital elements
Apogee340.565 km
Perigee339.38 km
Semi-major axis6,718.11 km
Eccentricity0.0000882
Inclination53.1549°
RAAN283.6623°
Arg. of periapsis138.4238°
True anomaly221.67828°
Mean anomaly221.685°
Mean motion3.9416 °/min
BSTAR0.00041449
Period91.33 mins
Definitive object data (Epoch: 2024-07-21T05:15:47.031Z)
Latitude-0.00005°
Longitude-94.75324°
Altitude341.07 km
Speed7.705 km/s
True Right ascension18h 54m 38s
True Declination0° 00' 00"
Sunlit
Object was in full shadow at TLE epoch
TLE from 5 hours ago
0 STARLINK-11127
1 60119U 24118G   24203.21929435  .00067731  00000-0  41449-3 0  9998
2 60119  53.1549 283.6623 0000882 138.4238 221.6850 15.76730887  5161
Epoch: 2024-07-21T05:15Z
No data available

STARLINK-11127 Visibility forecast

Observer location: 39.9160978°, -105.1181434

STARLINK-11127 is not visible in the next 10 days
Span
Click to sort rows by Start time (UTC) header in descending order
Start Az.
Max El. time (UTC)
Max El. Az.
Max El.
End time (UTC)
End Az.